This demonstration page uses our WeatherBlox Daily Observations layout. Learn more.

Left ArrowRight Arrow

39.92423, -83.80882

Hourly Observations for December 15, 2015

Temp ( °F °C ) Dew Point ( °F °C ) Humidity (%) Winds ( mph kmh ) Pressure ( in mb ) Visibility ( mi km ) Precip ( " mm )
12:36 am 00:36 Cloudy 45 7 41 5 87 87 WSW 17 28 29.68 1005 10 16.0934 0 0
12:56 am 00:56 Cloudy 45 7.2 41 5 86 86 SW 16 26 29.67 1005 10 16.0934 0 0
1:33 am 01:33 Cloudy with Light Rain 45 7 41 5 87 87 WSW 13 20 29.68 1005 7 11.26538 0 0.0254
1:56 am 01:56 Cloudy with Light Rain 43 6.1 41 5 93 93 WSW 14 22 29.7 1006 6 9.65604 0.01 0.254
2:56 am 02:56 Mostly Cloudy 43 6.1 40 4.4 89 89 WSW 14 22 29.73 1007 10 16.0934 0 0.0254
3:14 am 03:14 Cloudy 43 6 39 4 87 87 WSW 13 20 29.77 1008 10 16.0934 0 0
3:31 am 03:31 Cloudy 43 6 39 4 87 87 WSW 14 22 29.77 1008 10 16.0934 0 0
3:56 am 03:56 Cloudy 43 6.1 39 3.8 85 85 WSW 17 28 29.75 1008 10 16.0934 0 0
4:40 am 04:40 Cloudy 43 6 39 4 87 87 WSW 16 26 29.8 1009 10 16.0934 0 0
4:56 am 04:56 Cloudy 42 5.5 39 3.8 89 89 WSW 13 20 29.78 1008 10 16.0934 0 0
5:03 am 05:03 Cloudy 43 6 39 4 87 87 WSW 12 19 29.8 1009 10 16.0934 0 0
5:30 am 05:30 Cloudy 43 6 39 4 87 87 WSW 10 17 29.8 1009 10 16.0934 0 0
5:56 am 05:56 Cloudy with Mist and Fog 42 5.5 40 4.4 93 93 WSW 12 19 29.8 1009 5 8.0467 0 0
6:00 am 06:00 Cloudy 43 6 39 4 87 87 WSW 12 19 29.83 1010 9 14.48406 0 0
6:15 am 06:15 Mostly Cloudy 41 5 39 4 93 93 WSW 10 17 29.83 1010 10 16.0934 0 0
6:32 am 06:32 Mostly Cloudy with Mist and Fog 41 5 39 4 93 93 WSW 12 19 29.83 1010 2.5 4.02335 0 0
6:40 am 06:40 Cloudy with Light Rain 41 5 39 4 93 93 WSW 13 20 29.83 1010 2.5 4.02335 0.01 0.254
6:45 am 06:45 Cloudy with Light Rain 41 5 41 5 100 100 WSW 10 17 29.85 1011 3 4.82802 0.01 0.254
6:56 am 06:56 Cloudy with Light Rain 41 5 41 5 100 100 WSW 10 17 29.83 1010 2 3.21868 0.01 0.254
7:08 am 07:08 Cloudy with Light Rain 41 5 39 4 93 93 WSW 10 17 29.85 1011 4 6.43736 0.01 0.254
7:56 am 07:56 Cloudy 41 5 40 4.4 96 96 WSW 13 20 29.86 1011 8 12.87472 0.01 0.254
8:56 am 08:56 Cloudy 42 5.5 40 4.4 93 93 WSW 14 22 29.9 1013 10 16.0934 0 0
9:56 am 09:56 Cloudy 42 5.5 40 4.4 93 93 WSW 12 19 29.93 1013 10 16.0934 0 0
10:56 am 10:56 Cloudy 42 5.5 38 3.3 86 86 W 14 22 29.96 1014 10 16.0934 0 0
11:25 am 11:25 Cloudy 43 6 39 4 87 87 W 10 17 29.97 1015 10 16.0934 0 0
11:56 am 11:56 Cloudy 42 5.5 38 3.3 86 86 W 10 17 29.94 1014 10 16.0934 0 0
12:32 pm 12:32 Cloudy 43 6 37 3 81 81 W 9 15 29.97 1015 10 16.0934 0 0
12:56 pm 12:56 Cloudy 42 5.5 38 3.3 86 86 W 9 15 29.95 1014 10 16.0934 0 0
1:41 pm 13:41 Cloudy 43 6 37 3 81 81 WNW 8 13 29.97 1015 10 16.0934 0 0
1:56 pm 13:56 Cloudy 42 5.5 39 3.8 89 89 W 9 15 29.94 1014 10 16.0934 0 0
2:56 pm 14:56 Cloudy 42 5.5 38 3.3 86 86 WSW 5 7 29.94 1014 10 16.0934 0 0
3:56 pm 15:56 Cloudy 42 5.5 38 3.3 86 86 WSW 5 7 29.96 1015 10 16.0934 0 0
4:56 pm 16:56 Cloudy 42 5.5 38 3.3 86 86 SSW 5 7 29.98 1015 10 16.0934 0 0
5:56 pm 17:56 Cloudy 41 5 38 3.3 89 89 S 3 6 29.99 1016 10 16.0934 0 0
6:56 pm 18:56 Cloudy 42 5.5 37 2.7 82 82 Calm 30 1016 10 16.0934 0 0
7:56 pm 19:56 Cloudy 41 5 38 3.3 89 89 SSE 5 7 30.01 1016 10 16.0934 0 0
8:56 pm 20:56 Cloudy 42 5.5 38 3.3 86 86 SE 5 7 30.01 1016 10 16.0934 0 0
9:56 pm 21:56 Cloudy 41 5 37 2.7 85 85 ESE 6 9 30.01 1016 10 16.0934 0 0
10:56 pm 22:56 Cloudy 41 5 38 3.3 89 89 E 5 7 30.01 1016 10 16.0934 0 0
11:15 pm 23:15 Cloudy 41 5 37 3 87 87 E 3 6 30.03 1017 10 16.0934 0 0
11:56 pm 23:56 Cloudy 41 5 38 3.3 89 89 E 6 9 30 1016 10 16.0934 0 0

Powered by AerisWeather